Torna al catalogo

FENGYUN 1C DEB

LostPO
NORAD 37685·DEBRIS·🇨🇳 China

Lanciato May 10, 1999 da Taiyuan Satellite Launch Center

Loading…

Prossimi Passaggi (prossime 24 ore)

TLE

ObsoletoSource: Space-Track

Epoca: Oct 12, 2024, 14:47 UTC

1 37685U 99025ELA 24286.61632036  .00016869  00000-0  70398-2 0  9992
2 37685  98.0056 218.9256 0162799 244.7787 241.9840 14.19324867750763

Traccia FENGYUN 1C DEB in tempo reale con AllMySat

Download on the App Store